LPFRGCLP

Guest
Details From LPFR - Faro
To GCLP - Gran Canaria
Flight Number -
Tags generated
Created
Modified
Stats Distance 662 nm / 1,226 km
Max Altitude 34,000 ft / 10,363 m
Waypoints 10
Social Downloads 3
Likes 0
Share VATSIM

Download

Looking for another format? Having issues loading an existing format? Contact us
Advertisement - Login to hide

Notes

Basic altitude profile: - Ascent Rate: 2500ft/min - Ascent Speed: 250kts - Cruise Altitude: 35000ft - Cruise Speed: 420kts - Descent Rate: 1500ft/min - Descent Speed: 250kts Options: - Use NATs: yes - Use PACOTS: yes - Use low airways: yes - Use high airways: yes

Route

LPFR AKUDA UN858 VASTO N858 LARYS GCLP

ID Type Via Altitude Latitude Longitude Leg Dist Tot Dist Heading (true) Name
O LPFR APT - 0 ft / 0 m 37.01534˚ -7.97233˚ - 0 nm - Faro
AKUDA FIX - 28,100 ft / 8,565 m 35.96667˚ -8.95000˚ 78 nm 78 nm 217° / 217° -
SUNID FIX UN858 (AWY-HI) 34,000 ft / 10,363 m 34.61972˚ -10.15667˚ 100 nm 178 nm 217° / 216° -
ATLUX FIX UN858 (AWY-HI) 34,000 ft / 10,363 m 32.99750˚ -11.55167˚ 119 nm 298 nm 216° / 215° -
DIMSA FIX UN858 (AWY-HI) 34,000 ft / 10,363 m 31.97194˚ -12.39889˚ 75 nm 373 nm 215° / 215° -
SULAM FIX UN858 (AWY-HI) 34,000 ft / 10,363 m 30.91833˚ -13.25000˚ 76 nm 450 nm 215° / 214° -
VASTO FIX UN858 (AWY-HI) 34,000 ft / 10,363 m 30.50944˚ -13.57278˚ 29 nm 480 nm 214° / 214° -
SARAY FIX N858 (AWY-LO) 24,500 ft / 7,468 m 29.75863˚ -14.15743˚ 54 nm 534 nm 214° / 214° -
LARYS FIX N858 (AWY-LO) 12,600 ft / 3,840 m 28.87183˚ -14.83429˚ 63 nm 598 nm 214° / 213° -
O GCLP APT - 0 ft / 0 m 27.93154˚ -15.38559˚ 63 nm 662 nm 207° / 207° Gran Canaria

Altitude Profile

Advertisement - Login to hide

Weather


0- 5 10 15 20 25 30 35+ Temperature / ° C

Clouds and Precipitation
Forecast for 2018-05-21 12:00 UTC. Updated 3 hours ago

Ground ~20,000 ft ~40,000 ft Winds

LPFR

Details ICAO LPFR (FAO)
Name Faro
Region Portugal
Timezone Europe/Lisbon (UTC+1.0)
Stats Elevation 24 ft / 7 m (AMSL)
Location 37.015336° -7.972327°
Runways 1
Magnetic Variation 1.884° W

METAR

LPFR 211330Z 19009KT 160V230 9999 FEW015 19/15 Q1012

Decode

TAF

TAF LPFR 211100Z 2112/2212 22008KT 9999 BKN015 BECMG 2114/2116 26015KT SCT020 BECMG 2120/2122 29010KT BECMG 2201/2203 34005KT 9999 SCT015 BECMG 2210/2212 20008KT FEW020

Decode

Departure Runways

ID Width Length Bearing (true) Bearing (mag) Surface Threshold Offset Overrun Length
10 148 ft / 45 m 8,148 ft / 2,484 m 100.08° 101.96° Asphalt 148 ft / 45 m 0 ft / 0 m
28 148 ft / 45 m 8,148 ft / 2,484 m 280.10° 281.98° Asphalt 148 ft / 45 m 0 ft / 0 m

GCLP

Details ICAO GCLP (LPA)
Name Gran Canaria
Region Canary Islands
Timezone Atlantic/Canary (UTC+1.0)
Stats Elevation 77 ft / 23 m (AMSL)
Location 27.931544° -15.385592°
Runways 2
Magnetic Variation 4.635° W

METAR

GCLP 211330Z 03023KT 9999 FEW048 23/11 Q1016 NOSIG

Decode

TAF

TAF GCLP 210800Z 2109/2209 01018KT 9999 FEW030 TX23/2115Z TN16/2205Z= TAF AMD KLRF 210815Z 2108/2213 20006KT 9999 VCTS SCT016CB BKN040 BKN200 QNH2996INS TEMPO 2108/2110 25009KT 8000 -TSRA BKN007CB BECMG 2109/2110 20006KT 9999 NSW SCT015 BKN200 QNH2999INS BECMG 2117/2118 28006KT 8000 -SHRA BKN055 BKN200 QNH2992INS TEMPO 2118/2124 23010G20KT 4800 -TSRA BKN020CB BECMG 2123/2124 16006KT 9999 NSW BKN065 QNH2995INS TX32/2121Z TN21/2111Z

Decode

Destination Runways

ID Width Length Bearing (true) Bearing (mag) Surface Threshold Offset Overrun Length
03L 148 ft / 45 m 10,203 ft / 3,110 m 21.33° 25.96° Asphalt 0 ft / 0 m 656 ft / 200 m
03R 148 ft / 45 m 10,200 ft / 3,109 m 21.32° 25.95° Asphalt 0 ft / 0 m 673 ft / 205 m
21L 148 ft / 45 m 10,200 ft / 3,109 m 201.33° 205.96° Asphalt 0 ft / 0 m 689 ft / 210 m
21R 148 ft / 45 m 10,203 ft / 3,110 m 201.33° 205.96° Asphalt 0 ft / 0 m 755 ft / 230 m

Approach Navaids

Runway Type Ident Frequency Range Bearing (true) Bearing (mag) Slope Elevation
03L Localiser ILP 109.90 MHz 18 nm / 33 km 21.33° 25.97° - 77 ft / 23 m (AMSL)
03L Glidescope ILP 109.90 MHz 10 nm / 19 km 21.33° 25.97° 3.00° 102 ft / 31 m (AMSL)
03L DME ILP 109.90 MHz 18 nm / 33 km - - - 102 ft / 31 m (AMSL)
21R Localiser RLP 110.70 MHz 18 nm / 33 km 201.32° 205.96° - 77 ft / 23 m (AMSL)
21R Glidescope RLP 110.70 MHz 10 nm / 19 km 201.33° 205.97° 3.00° 77 ft / 23 m (AMSL)
21R DME RLP 110.70 MHz 18 nm / 33 km - - - 57 ft / 17 m (AMSL)

Popular Alternatives